TimeEDT,TemperatureF,Dew PointF,Humidity,Sea Level PressureIn,VisibilityMPH,Wind Direction,Wind SpeedMPH,Gust SpeedMPH,PrecipitationIn,Events,Conditions,WindDirDegrees,DateUTC
12:15 AM,21.2,19.4,93,29.88,2.0,WNW,6.9,-,N/A,Snow,Light Snow,300,2013-04-02 04:15:00
12:35 AM,21.2,19.4,93,29.88,2.5,WNW,5.8,-,N/A,Snow,Light Snow,290,2013-04-02 04:35:00
12:55 AM,21.2,19.4,93,29.88,3.0,West,4.6,-,N/A,Snow,Light Snow,280,2013-04-02 04:55:00
1:15 AM,21.2,19.4,93,29.88,1.2,WNW,4.6,-,N/A,Snow,Snow,300,2013-04-02 05:15:00
1:35 AM,21.2,19.4,93,29.88,4.0,West,4.6,-,N/A,Snow,Light Snow,280,2013-04-02 05:35:00
2:15 AM,19.4,19.4,100,29.88,0.2,WNW,9.2,16.1,N/A,Snow,Heavy Snow,290,2013-04-02 06:15:00
2:35 AM,19.4,19.4,100,29.88,2.5,WNW,4.6,-,N/A,Snow,Light Snow,300,2013-04-02 06:35:00
2:55 AM,19.4,19.4,100,29.88,1.0,WNW,4.6,-,N/A,Snow,Snow,300,2013-04-02 06:55:00
3:15 AM,19.4,17.6,93,29.88,3.0,WNW,9.2,17.3,N/A,Snow,Light Snow,290,2013-04-02 07:15:00
3:35 AM,19.4,15.8,86,29.88,10.0,WNW,4.6,-,N/A,Snow,Light Snow,290,2013-04-02 07:35:00
3:55 AM,19.4,14.0,80,29.88,10.0,West,6.9,-,N/A,,Overcast,280,2013-04-02 07:55:00
4:15 AM,19.4,14.0,80,29.88,10.0,WNW,8.1,-,N/A,,Overcast,290,2013-04-02 08:15:00
4:35 AM,19.4,12.2,74,29.88,10.0,West,4.6,10.4,N/A,,Overcast,280,2013-04-02 08:35:00
4:55 AM,19.4,14.0,80,29.88,10.0,West,5.8,-,N/A,Snow,Light Snow,280,2013-04-02 08:55:00
5:15 AM,19.4,14.0,80,29.88,1.5,West,3.5,-,N/A,Snow,Light Snow,270,2013-04-02 09:15:00
5:35 AM,17.6,14.0,86,29.88,5.0,West,4.6,-,N/A,Snow,Light Snow,280,2013-04-02 09:35:00
5:55 AM,19.4,15.8,86,29.89,2.0,WNW,4.6,-,N/A,Snow,Light Snow,290,2013-04-02 09:55:00
6:15 AM,17.6,15.8,93,29.89,5.0,West,5.8,-,N/A,Snow,Light Snow,270,2013-04-02 10:15:00
6:35 AM,19.4,17.6,93,29.90,0.8,WNW,6.9,-,N/A,Snow,Snow,290,2013-04-02 10:35:00
6:55 AM,19.4,15.8,86,29.91,4.0,WNW,4.6,-,N/A,Snow,Light Snow,290,2013-04-02 10:55:00
7:15 AM,19.4,15.8,86,29.91,1.2,WNW,9.2,-,N/A,Snow,Light Snow,290,2013-04-02 11:15:00
7:35 AM,19.4,14.0,80,29.91,5.0,WNW,8.1,-,N/A,Snow,Light Snow,290,2013-04-02 11:35:00
7:55 AM,19.4,15.8,86,29.92,1.8,West,5.8,-,N/A,Snow,Light Snow,280,2013-04-02 11:55:00
8:15 AM,19.4,14.0,80,29.93,5.0,West,9.2,20.7,N/A,Snow,Light Snow,270,2013-04-02 12:15:00
8:35 AM,21.2,14.0,74,29.94,7.0,WNW,8.1,16.1,N/A,,Overcast,290,2013-04-02 12:35:00
8:55 AM,21.2,12.2,68,29.94,4.0,WNW,9.2,26.5,N/A,,Haze,290,2013-04-02 12:55:00
9:15 AM,23.0,12.2,63,29.94,7.0,West,9.2,18.4,N/A,,Mostly Cloudy,280,2013-04-02 13:15:00
9:35 AM,23.0,10.4,59,29.94,5.0,WNW,11.5,25.3,N/A,,Haze,290,2013-04-02 13:35:00
9:55 AM,21.2,14.0,74,29.95,1.5,WNW,9.2,19.6,N/A,Snow,Light Snow,290,2013-04-02 13:55:00
10:15 AM,23.0,14.0,68,29.96,2.5,WNW,4.6,-,N/A,Snow,Light Snow,290,2013-04-02 14:15:00
10:35 AM,23.0,14.0,68,29.96,3.0,WNW,9.2,19.6,N/A,Snow,Light Snow,290,2013-04-02 14:35:00
10:55 AM,24.8,12.2,59,29.96,10.0,West,8.1,24.2,N/A,,Overcast,280,2013-04-02 14:55:00
11:15 AM,24.8,10.4,54,29.96,10.0,West,10.4,18.4,N/A,,Overcast,280,2013-04-02 15:15:00
11:35 AM,24.8,10.4,54,29.96,7.0,WNW,10.4,20.7,N/A,,Overcast,290,2013-04-02 15:35:00
11:55 AM,26.6,10.4,51,29.96,7.0,West,6.9,26.5,N/A,,Overcast,280,2013-04-02 15:55:00
12:15 PM,26.6,10.4,51,29.97,10.0,West,8.1,21.9,N/A,,Overcast,280,2013-04-02 16:15:00
12:35 PM,26.6,8.6,47,29.96,10.0,West,8.1,24.2,N/A,,Overcast,280,2013-04-02 16:35:00
12:55 PM,26.6,8.6,47,29.96,7.0,WNW,11.5,23.0,N/A,,Overcast,290,2013-04-02 16:55:00
1:15 PM,28.4,10.4,47,29.96,10.0,West,11.5,21.9,N/A,,Overcast,260,2013-04-02 17:15:00
1:35 PM,28.4,8.6,43,29.95,10.0,WNW,10.4,23.0,N/A,,Overcast,300,2013-04-02 17:35:00
1:55 PM,28.4,8.6,43,29.95,10.0,WNW,13.8,21.9,N/A,,Overcast,290,2013-04-02 17:55:00
2:15 PM,30.2,8.6,40,29.95,10.0,West,11.5,26.5,N/A,,Overcast,270,2013-04-02 18:15:00
2:35 PM,30.2,8.6,40,29.96,7.0,West,12.7,25.3,N/A,,Overcast,260,2013-04-02 18:35:00
2:55 PM,30.2,10.4,44,29.96,10.0,WNW,8.1,29.9,N/A,,Overcast,290,2013-04-02 18:55:00
3:15 PM,28.4,8.6,43,29.96,10.0,WNW,13.8,32.2,N/A,,Overcast,290,2013-04-02 19:15:00
3:35 PM,28.4,10.4,47,29.96,10.0,West,11.5,29.9,N/A,,Overcast,280,2013-04-02 19:35:00
3:55 PM,28.4,10.4,47,29.96,10.0,West,11.5,26.5,N/A,,Overcast,270,2013-04-02 19:55:00
4:15 PM,26.6,10.4,51,29.97,10.0,WNW,11.5,26.5,N/A,,Overcast,290,2013-04-02 20:15:00
4:35 PM,26.6,10.4,51,29.97,10.0,WNW,15.0,21.9,N/A,,Overcast,300,2013-04-02 20:35:00
4:55 PM,28.4,10.4,47,29.97,10.0,West,6.9,18.4,N/A,,Overcast,280,2013-04-02 20:55:00
5:15 PM,28.4,10.4,47,29.98,10.0,West,8.1,20.7,N/A,,Overcast,280,2013-04-02 21:15:00
5:35 PM,26.6,10.4,51,29.99,10.0,WNW,11.5,23.0,N/A,,Overcast,290,2013-04-02 21:35:00
5:55 PM,26.6,12.2,55,29.99,10.0,West,8.1,24.2,N/A,,Overcast,280,2013-04-02 21:55:00
6:15 PM,26.6,12.2,55,30.00,10.0,WNW,11.5,24.2,N/A,,Overcast,290,2013-04-02 22:15:00
6:35 PM,26.6,12.2,55,30.00,10.0,West,10.4,19.6,N/A,,Overcast,280,2013-04-02 22:35:00
6:55 PM,26.6,14.0,59,30.01,10.0,West,5.8,18.4,N/A,,Overcast,280,2013-04-02 22:55:00
7:15 PM,26.6,14.0,59,30.01,10.0,West,5.8,-,N/A,,Overcast,270,2013-04-02 23:15:00
7:35 PM,26.6,14.0,59,30.01,10.0,West,5.8,18.4,N/A,Snow,Light Snow,270,2013-04-02 23:35:00
7:55 PM,26.6,15.8,64,30.02,10.0,West,9.2,18.4,N/A,Snow,Light Snow,270,2013-04-02 23:55:00
8:15 PM,24.8,14.0,64,30.02,10.0,West,6.9,-,N/A,,Overcast,280,2013-04-03 00:15:00
8:35 PM,26.6,15.8,64,30.03,7.0,West,12.7,19.6,N/A,Snow,Light Snow,280,2013-04-03 00:35:00
8:55 PM,24.8,15.8,69,30.04,10.0,West,6.9,-,N/A,Snow,Light Snow,270,2013-04-03 00:55:00
9:15 PM,24.8,15.8,69,30.04,10.0,West,8.1,18.4,N/A,Snow,Light Snow,270,2013-04-03 01:15:00
9:35 PM,24.8,15.8,69,30.04,10.0,West,8.1,-,N/A,,Overcast,270,2013-04-03 01:35:00
9:55 PM,23.0,19.4,86,30.04,1.5,WNW,9.2,20.7,N/A,Snow,Light Snow,290,2013-04-03 01:55:00
10:15 PM,23.0,21.2,93,30.04,1.0,West,4.6,-,N/A,Snow,Light Snow,270,2013-04-03 02:15:00
10:35 PM,23.0,21.2,93,30.04,7.0,West,5.8,-,N/A,Snow,Light Snow,270,2013-04-03 02:35:00
10:55 PM,23.0,21.2,93,30.04,7.0,West,4.6,-,N/A,Snow,Light Snow,270,2013-04-03 02:55:00
11:15 PM,23.0,21.2,93,30.04,10.0,WNW,4.6,-,N/A,Snow,Light Snow,290,2013-04-03 03:15:00
11:35 PM,23.0,19.4,86,30.04,10.0,West,5.8,-,N/A,,Overcast,270,2013-04-03 03:35:00
11:55 PM,23.0,19.4,86,30.04,10.0,West,5.8,-,N/A,,Overcast,280,2013-04-03 03:55:00